Time,TemperatureF,DewpointF,PressureIn,WindDirection,WindDirectionDegrees,WindSpeedMPH,WindSpeedGustMPH,Humidity,HourlyPrecipIn,Conditions,Clouds,dailyrainin,SoftwareType,DateUTC
2013-09-27 00:13:00,58.8,49.0,29.88,East,92,4.0,8.0,69,0.00,,,0.00,weatherlink.com 1.10,2013-09-27 07:13:00,
2013-09-27 00:28:00,58.2,48.0,29.89,NE,38,3.0,6.0,70,0.00,,,0.00,weatherlink.com 1.10,2013-09-27 07:28:00,
2013-09-27 00:43:00,57.6,48.0,29.88,NE,47,1.0,3.0,71,0.00,,,0.00,weatherlink.com 1.10,2013-09-27 07:43:00,
2013-09-27 00:58:00,57.2,49.0,29.88,ENE,64,1.0,3.0,73,0.00,,,0.00,weatherlink.com 1.10,2013-09-27 07:58:00,
2013-09-27 01:14:00,56.2,48.0,29.88,ENE,62,0.0,3.0,75,0.00,,,0.00,weatherlink.com 1.10,2013-09-27 08:14:00,
2013-09-27 01:29:00,55.4,48.0,29.88,North,360,0.0,3.0,76,0.00,,,0.00,weatherlink.com 1.10,2013-09-27 08:29:00,
2013-09-27 01:44:00,55.4,47.0,29.89,East,98,1.0,4.0,73,0.00,,,0.00,weatherlink.com 1.10,2013-09-27 08:44:00,
2013-09-27 01:59:00,55.3,47.0,29.90,East,90,0.0,2.0,73,0.00,,,0.00,weatherlink.com 1.10,2013-09-27 08:59:00,
2013-09-27 02:14:00,54.8,46.0,29.89,ENE,67,1.0,3.0,73,0.00,,,0.00,weatherlink.com 1.10,2013-09-27 09:14:00,
2013-09-27 02:29:00,54.1,46.0,29.89,ENE,67,1.0,4.0,73,0.00,,,0.00,weatherlink.com 1.10,2013-09-27 09:29:00,
2013-09-27 02:44:00,53.7,45.0,29.89,NNE,30,3.0,4.0,73,0.00,,,0.00,weatherlink.com 1.10,2013-09-27 09:44:00,
2013-09-27 02:59:00,53.6,44.0,29.89,NE,40,2.0,3.0,71,0.00,,,0.00,weatherlink.com 1.10,2013-09-27 09:59:00,
2013-09-27 03:14:00,53.5,44.0,29.89,NNE,17,4.0,5.0,71,0.00,,,0.00,weatherlink.com 1.10,2013-09-27 10:14:00,
2013-09-27 03:29:00,53.5,44.0,29.89,East,94,1.0,4.0,71,0.00,,,0.00,weatherlink.com 1.10,2013-09-27 10:29:00,
2013-09-27 03:44:00,52.8,44.0,29.89,NNW,343,1.0,2.0,73,0.00,,,0.00,weatherlink.com 1.10,2013-09-27 10:44:00,
2013-09-27 03:59:00,52.1,44.0,29.89,ENE,65,0.0,3.0,75,0.00,,,0.00,weatherlink.com 1.10,2013-09-27 10:59:00,
2013-09-27 04:14:00,51.5,45.0,29.89,NE,38,1.0,3.0,77,0.00,,,0.00,weatherlink.com 1.10,2013-09-27 11:14:00,
2013-09-27 04:29:00,51.4,44.0,29.89,NE,38,1.0,2.0,77,0.00,,,0.00,weatherlink.com 1.10,2013-09-27 11:29:00,
2013-09-27 04:44:00,51.1,43.0,29.90,NE,38,1.0,2.0,74,0.00,,,0.00,weatherlink.com 1.10,2013-09-27 11:44:00,
2013-09-27 04:59:00,50.7,43.0,29.90,NNE,21,1.0,2.0,74,0.00,,,0.00,weatherlink.com 1.10,2013-09-27 11:59:00,
2013-09-27 05:14:00,50.2,42.0,29.91,NNE,22,2.0,3.0,74,0.00,,,0.00,weatherlink.com 1.10,2013-09-27 12:14:00,
2013-09-27 05:29:00,50.2,41.0,29.91,NNE,30,1.0,2.0,72,0.00,,,0.00,weatherlink.com 1.10,2013-09-27 12:29:00,
2013-09-27 05:44:00,50.0,41.0,29.91,NNE,28,2.0,3.0,72,0.00,,,0.00,weatherlink.com 1.10,2013-09-27 12:44:00,
2013-09-27 05:59:00,50.7,40.0,29.92,NNE,20,2.0,4.0,66,0.00,,,0.00,weatherlink.com 1.10,2013-09-27 12:59:00,
2013-09-27 06:14:00,51.3,39.0,29.92,ENE,67,3.0,3.0,63,0.00,,,0.00,weatherlink.com 1.10,2013-09-27 13:14:00,
2013-09-27 06:29:00,51.0,38.0,29.93,NNE,32,2.0,3.0,62,0.00,,,0.00,weatherlink.com 1.10,2013-09-27 13:29:00,
2013-09-27 06:44:00,51.0,38.0,29.93,NE,39,0.0,1.0,62,0.00,,,0.00,weatherlink.com 1.10,2013-09-27 13:44:00,
2013-09-27 06:59:00,50.2,39.0,29.93,NE,55,1.0,2.0,65,0.00,,,0.00,weatherlink.com 1.10,2013-09-27 13:59:00,
2013-09-27 07:14:00,50.3,39.0,29.94,NNE,30,2.0,3.0,66,0.00,,,0.00,weatherlink.com 1.10,2013-09-27 14:14:00,
2013-09-27 07:29:00,53.1,40.0,29.94,NNE,21,0.0,2.0,61,0.00,,,0.00,weatherlink.com 1.10,2013-09-27 14:29:00,
2013-09-27 07:45:00,54.4,40.0,29.95,ENE,72,0.0,2.0,58,0.00,,,0.00,weatherlink.com 1.10,2013-09-27 14:45:00,
2013-09-27 08:00:00,58.6,41.0,29.95,ENE,72,1.0,2.0,53,0.00,,,0.00,weatherlink.com 1.10,2013-09-27 15:00:00,
2013-09-27 08:15:00,64.6,38.0,29.96,ENE,61,2.0,5.0,37,0.00,,,0.00,weatherlink.com 1.10,2013-09-27 15:15:00,
2013-09-27 08:30:00,68.0,38.0,29.96,ENE,77,0.0,4.0,33,0.00,,,0.00,weatherlink.com 1.10,2013-09-27 15:30:00,
2013-09-27 08:45:00,63.6,44.0,29.96,WSW,245,1.0,5.0,50,0.00,,,0.00,weatherlink.com 1.10,2013-09-27 15:45:00,
2013-09-27 09:00:00,64.8,45.0,29.96,SW,217,1.0,4.0,49,0.00,,,0.00,weatherlink.com 1.10,2013-09-27 16:00:00,
2013-09-27 09:15:00,65.3,48.0,29.97,SSW,213,1.0,4.0,54,0.00,,,0.00,weatherlink.com 1.10,2013-09-27 16:15:00,
2013-09-27 09:30:00,67.3,48.0,29.97,SSE,151,2.0,3.0,50,0.00,,,0.00,weatherlink.com 1.10,2013-09-27 16:30:00,
2013-09-27 09:45:00,71.0,45.0,29.97,SW,233,1.0,3.0,39,0.00,,,0.00,weatherlink.com 1.10,2013-09-27 16:45:00,
2013-09-27 10:00:00,71.9,43.0,29.97,SSW,205,3.0,4.0,36,0.00,,,0.00,weatherlink.com 1.10,2013-09-27 17:00:00,
2013-09-27 10:15:00,73.0,48.0,29.98,SW,234,2.0,7.0,41,0.00,,,0.00,weatherlink.com 1.10,2013-09-27 17:15:00,
2013-09-27 10:30:00,74.0,44.0,29.97,SW,236,1.0,5.0,34,0.00,,,0.00,weatherlink.com 1.10,2013-09-27 17:30:00,
2013-09-27 10:45:00,74.0,47.0,29.98,SW,226,2.0,7.0,38,0.00,,,0.00,weatherlink.com 1.10,2013-09-27 17:45:00,
2013-09-27 11:00:00,74.8,45.0,29.97,WNW,295,0.0,7.0,35,0.00,,,0.00,weatherlink.com 1.10,2013-09-27 18:00:00,
2013-09-27 11:15:00,76.7,41.0,29.97,WNW,297,1.0,9.0,28,0.00,,,0.00,weatherlink.com 1.10,2013-09-27 18:15:00,
2013-09-27 11:30:00,79.6,40.0,29.97,WNW,288,3.0,9.0,24,0.00,,,0.00,weatherlink.com 1.10,2013-09-27 18:30:00,
2013-09-27 11:45:00,80.3,38.0,29.96,WSW,254,1.0,8.0,22,0.00,,,0.00,weatherlink.com 1.10,2013-09-27 18:45:00,
2013-09-27 12:00:00,80.3,39.0,29.96,WNW,286,1.0,11.0,23,0.00,,,0.00,weatherlink.com 1.10,2013-09-27 19:00:00,
2013-09-27 12:15:00,80.9,37.0,29.96,WSW,241,3.0,8.0,21,0.00,,,0.00,weatherlink.com 1.10,2013-09-27 19:15:00,
2013-09-27 12:30:00,82.5,38.0,29.96,SSW,202,2.0,8.0,20,0.00,,,0.00,weatherlink.com 1.10,2013-09-27 19:30:00,
2013-09-27 12:45:00,83.5,38.0,29.96,SW,235,5.0,9.0,20,0.00,,,0.00,weatherlink.com 1.10,2013-09-27 19:45:00,
2013-09-27 13:00:00,82.4,33.0,29.96,WSW,244,7.0,12.0,17,0.00,,,0.00,weatherlink.com 1.10,2013-09-27 20:00:00,
2013-09-27 13:15:00,82.9,35.0,29.95,NE,48,1.0,10.0,18,0.00,,,0.00,weatherlink.com 1.10,2013-09-27 20:15:00,
2013-09-27 13:30:00,82.0,30.0,29.95,West,276,8.0,14.0,15,0.00,,,0.00,weatherlink.com 1.10,2013-09-27 20:30:00,
2013-09-27 13:45:00,81.5,31.0,29.94,WNW,288,8.0,13.0,16,0.00,,,0.00,weatherlink.com 1.10,2013-09-27 20:45:00,
2013-09-27 14:00:00,83.3,34.0,29.94,WNW,297,4.0,13.0,17,0.00,,,0.00,weatherlink.com 1.10,2013-09-27 21:00:00,
2013-09-27 14:16:00,83.2,34.0,29.93,SW,229,4.0,12.0,17,0.00,,,0.00,weatherlink.com 1.10,2013-09-27 21:16:00,
2013-09-27 14:31:00,82.9,34.0,29.93,West,268,2.0,11.0,17,0.00,,,0.00,weatherlink.com 1.10,2013-09-27 21:31:00,
2013-09-27 14:46:00,81.1,31.0,29.93,WSW,249,5.0,15.0,16,0.00,,,0.00,weatherlink.com 1.10,2013-09-27 21:46:00,
2013-09-27 15:01:00,82.1,32.0,29.93,West,266,10.0,15.0,16,0.00,,,0.00,weatherlink.com 1.10,2013-09-27 22:01:00,
2013-09-27 15:16:00,81.5,30.0,29.92,SSW,196,5.0,14.0,15,0.00,,,0.00,weatherlink.com 1.10,2013-09-27 22:16:00,
2013-09-27 15:31:00,80.9,31.0,29.92,WNW,290,5.0,14.0,16,0.00,,,0.00,weatherlink.com 1.10,2013-09-27 22:31:00,
2013-09-27 15:46:00,80.2,30.0,29.92,NNW,329,6.0,14.0,16,0.00,,,0.00,weatherlink.com 1.10,2013-09-27 22:46:00,
2013-09-27 16:01:00,79.5,29.0,29.92,WSW,238,5.0,14.0,16,0.00,,,0.00,weatherlink.com 1.10,2013-09-27 23:01:00,
2013-09-27 16:16:00,78.9,29.0,29.92,NW,322,6.0,14.0,16,0.00,,,0.00,weatherlink.com 1.10,2013-09-27 23:16:00,
2013-09-27 16:31:00,78.4,29.0,29.93,WNW,302,3.0,15.0,16,0.00,,,0.00,weatherlink.com 1.10,2013-09-27 23:31:00,
2013-09-27 16:46:00,78.0,30.0,29.92,NW,315,14.0,14.0,17,0.00,,,0.00,weatherlink.com 1.10,2013-09-27 23:46:00,
2013-09-27 17:01:00,77.4,29.0,29.92,WNW,297,7.0,14.0,17,0.00,,,0.00,weatherlink.com 1.10,2013-09-28 00:01:00,
2013-09-27 17:16:00,77.2,29.0,29.92,WNW,298,5.0,13.0,17,0.00,,,0.00,weatherlink.com 1.10,2013-09-28 00:16:00,
2013-09-27 17:31:00,76.7,29.0,29.93,WSW,238,2.0,13.0,17,0.00,,,0.00,weatherlink.com 1.10,2013-09-28 00:31:00,
2013-09-27 17:46:00,76.1,30.0,29.93,ESE,103,6.0,12.0,18,0.00,,,0.00,weatherlink.com 1.10,2013-09-28 00:46:00,
2013-09-27 18:01:00,75.4,29.0,29.93,West,263,3.0,15.0,18,0.00,,,0.00,weatherlink.com 1.10,2013-09-28 01:01:00,
2013-09-27 18:16:00,74.8,28.0,29.93,NW,307,2.0,12.0,18,0.00,,,0.00,weatherlink.com 1.10,2013-09-28 01:16:00,
2013-09-27 18:31:00,74.0,28.0,29.93,WNW,298,2.0,8.0,18,0.00,,,0.00,weatherlink.com 1.10,2013-09-28 01:31:00,
2013-09-27 18:46:00,73.6,27.0,29.93,NW,320,2.0,8.0,18,0.00,,,0.00,weatherlink.com 1.10,2013-09-28 01:46:00,
2013-09-27 19:01:00,72.8,27.0,29.93,West,277,1.0,7.0,18,0.00,,,0.00,weatherlink.com 1.10,2013-09-28 02:01:00,
2013-09-27 19:16:00,72.3,26.0,29.94,WNW,289,4.0,9.0,18,0.00,,,0.00,weatherlink.com 1.10,2013-09-28 02:16:00,
2013-09-27 19:31:00,72.0,27.0,29.94,WNW,290,4.0,10.0,19,0.00,,,0.00,weatherlink.com 1.10,2013-09-28 02:31:00,
2013-09-27 19:46:00,71.8,29.0,29.94,West,266,2.0,7.0,20,0.00,,,0.00,weatherlink.com 1.10,2013-09-28 02:46:00,
2013-09-27 20:01:00,71.7,28.0,29.95,WNW,302,1.0,5.0,20,0.00,,,0.00,weatherlink.com 1.10,2013-09-28 03:01:00,
2013-09-27 20:16:00,71.3,28.0,29.96,NNW,344,2.0,4.0,20,0.00,,,0.00,weatherlink.com 1.10,2013-09-28 03:16:00,
2013-09-27 20:31:00,70.5,29.0,29.96,North,355,1.0,3.0,21,0.00,,,0.00,weatherlink.com 1.10,2013-09-28 03:31:00,
2013-09-27 20:46:00,68.9,31.0,29.96,North,355,0.0,2.0,24,0.00,,,0.00,weatherlink.com 1.10,2013-09-28 03:46:00,
2013-09-27 21:01:00,68.0,31.0,29.97,NE,34,0.0,3.0,25,0.00,,,0.00,weatherlink.com 1.10,2013-09-28 04:01:00,
2013-09-27 21:16:00,65.8,32.0,29.97,NE,37,0.0,2.0,28,0.00,,,0.00,weatherlink.com 1.10,2013-09-28 04:16:00,
2013-09-27 21:31:00,64.7,32.0,29.98,NE,37,0.0,0.0,30,0.00,,,0.00,weatherlink.com 1.10,2013-09-28 04:31:00,
2013-09-27 21:46:00,63.8,33.0,29.98,NE,37,1.0,1.0,32,0.00,,,0.00,weatherlink.com 1.10,2013-09-28 04:46:00,
2013-09-27 22:01:00,62.5,38.0,29.98,NE,37,1.0,2.0,41,0.00,,,0.00,weatherlink.com 1.10,2013-09-28 05:01:00,
2013-09-27 22:16:00,61.8,41.0,29.98,NE,34,0.0,1.0,47,0.00,,,0.00,weatherlink.com 1.10,2013-09-28 05:16:00,
2013-09-27 22:31:00,61.0,37.0,29.98,ENE,57,3.0,3.0,41,0.00,,,0.00,weatherlink.com 1.10,2013-09-28 05:31:00,
2013-09-27 22:46:00,60.8,37.0,29.98,NE,41,2.0,3.0,41,0.00,,,0.00,weatherlink.com 1.10,2013-09-28 05:46:00,
2013-09-27 23:01:00,60.1,36.0,29.98,ENE,64,0.0,3.0,40,0.00,,,0.00,weatherlink.com 1.10,2013-09-28 06:01:00,
2013-09-27 23:16:00,59.3,35.0,29.98,ENE,64,2.0,2.0,40,0.00,,,0.00,weatherlink.com 1.10,2013-09-28 06:16:00,
2013-09-27 23:31:00,59.0,34.0,29.98,NNE,30,2.0,3.0,39,0.00,,,0.00,weatherlink.com 1.10,2013-09-28 06:31:00,
2013-09-27 23:46:00,58.7,34.0,29.97,North,5,2.0,3.0,39,0.00,,,0.00,weatherlink.com 1.10,2013-09-28 06:46:00,